This demonstration page uses our WeatherBlox Daily Observations layout. Learn more.

Left ArrowRight Arrow

Hourly Observations for October 11, 2018

Temp ( °F °C ) Dew Point ( °F °C ) Humidity (%) Winds ( mph kmh ) Pressure ( in mb ) Visibility ( mi km ) Precip ( " mm )
12:07 am 00:07 Cloudy 41 5 32 0 70 70 NW 15 24 30.15 1021 10 16.0934 0 0
12:54 am 00:54 Cloudy 40 4.4 32 0 73 73 NW 9 15 30.14 1021 10 16.0934 0 0
1:54 am 01:54 Cloudy 40 4.4 32 0 73 73 NW 12 19 30.15 1021 10 16.0934 0 0
2:54 am 02:54 Cloudy 40 4.4 32 0 73 73 WNW 7 11 30.17 1022 10 16.0934 0 0
3:54 am 03:54 Cloudy 40 4.4 31 -0.6 70 70 NNW 14 22 30.17 1022 10 16.0934 0 0
4:54 am 04:54 Cloudy 39 3.9 30 -1.1 70 70 NW 17 28 30.19 1022 10 16.0934 0 0
5:54 am 05:54 Cloudy 39 3.9 29 -1.7 67 67 NW 9 15 30.2 1023 10 16.0934 0 0
6:07 am 06:07 Mostly Cloudy 38 3.3 29 -1.7 70 70 WNW 8 13 30.24 1024 10 16.0934 0 0
6:54 am 06:54 Partly Cloudy 37 2.8 29 -1.7 73 73 NW 8 13 30.21 1023 10 16.0934 0 0
7:54 am 07:54 Sunny 34 1.1 29 -1.7 82 82 WNW 8 13 30.21 1023 10 16.0934 0 0
8:54 am 08:54 Sunny 37 2.8 29 -1.7 73 73 WNW 10 17 30.24 1024 10 16.0934 0 0
9:54 am 09:54 Sunny 40 4.4 29 -1.7 65 65 NNW 12 19 30.24 1024 10 16.0934 0 0
10:54 am 10:54 Mostly Sunny 43 6.1 29 -1.7 58 58 NNW 9 15 30.26 1025 10 16.0934 0 0
11:54 am 11:54 Sunny 45 7.2 28 -2.2 52 52 WNW 10 17 30.24 1024 10 16.0934 0 0
12:54 pm 12:54 Sunny 47 8.3 28 -2.2 48 48 N 8 13 30.22 1024 10 16.0934 0 0
1:54 pm 13:54 Sunny 50 10 28 -2.2 43 43 NNW 8 13 30.2 1023 10 16.0934 0 0
2:54 pm 14:54 Sunny 51 10.6 28 -2.2 41 41 VRB 5 7 30.16 1022 10 16.0934 0 0
3:54 pm 15:54 Sunny 52 11.1 28 -2.2 40 40 NNW 6 9 30.16 1021 10 16.0934 0 0
4:54 pm 16:54 Sunny 53 11.7 27 -2.8 37 37 Calm 30.14 1021 10 16.0934 0 0
5:54 pm 17:54 Sunny 51 10.6 27 -2.8 39 39 WNW 3 6 30.13 1020 10 16.0934 0 0
6:54 pm 18:54 Clear 48 8.9 29 -1.7 48 48 NNE 3 6 30.13 1020 10 16.0934 0 0
7:54 pm 19:54 Clear 45 7.2 33 0.6 63 63 Calm 30.13 1020 10 16.0934 0 0
8:54 pm 20:54 Clear 40 4.4 33 0.6 77 77 Calm 30.14 1021 10 16.0934 0 0
9:54 pm 21:54 Cloudy 43 6.1 38 3.3 82 82 Calm 30.14 1021 10 16.0934 0 0
10:54 pm 22:54 Cloudy 43 6.1 37 2.8 80 80 Calm 30.14 1021 10 16.0934 0 0
11:54 pm 23:54 Cloudy 45 7.2 36 2.2 71 71 E 3 6 30.12 1020 10 16.0934 0 0

Powered by AerisWeather